Weather in Korovyakovka

Russia / Kursk Oblast     51°19′57″N   34°22′39″E
temp.,
°C
wind,
m/s
gust,
m/s
humid.,
%
clouds,
%
prec.,
mm/h
press.,
hPa
HPBL,
m
17 august, wed
wed1700:00+24ne71338100 0.0 1012393
03:00+22e5134382 0.0 1011332
06:00+22e3114798 0.1 1011280
09:00+21e61159100 0.1 1011287
12:00+24e5850100 0.0 1011432
15:00+27ene4849100 0.0 1011772
18:00+27ne7124756 0.0 1010704
21:00+23ne71646100 0.0 1010513
18 august, thu
thu1800:00+23ene6144542 0.0 1009498
03:00+23ene51239100 0.0 1009589
06:00+19ne51252100 0.0 1009344
09:00+23ene710475 0.0 1010662
12:00+25ene6847100 0.8 10101058
15:00+29ene67385 1.7 10091607
18:00+25ene6951100 0.0 1010739
21:00+21ne411585 0.0 1011244
19 august, fri
fri1900:00+20ne412695 0.0 1011286
03:00+19ne512725 0.0 1012337
06:00+18ne512794 0.0 1012455
09:00+20e71077100 0.0 1013788
12:00+26e785234 0.0 10131433
15:00+27e7847100 0.0 10131967
18:00+25ene8105640 0.0 1014819
21:00+21ene8156522 0.0 1015603
20 august, sat
sat2000:00+18e613690 0.0 1016436
03:00+17ene512680 0.0 1016335
06:00+16ne410720 0.0 1016236
09:00+21ene68570 0.0 1016571
12:00+28ese58420 0.0 10141495
15:00+30se78340 0.0 10152150
18:00+26ese6103981 0.0 10161044
21:00+23ese71440100 0.0 1016646
21 august, sun
sun2100:00+24e71631100 0.0 1015703
03:00+24ese71434100 0.1 1015541
06:00+24se51232100 0.0 1016736
09:00+20ese51462100 0.3 1017663
12:00+22ese6113593 0.0 1017749
15:00+22sse2240100 0.0 101626
18:00+23e3628100 0.0 1016100
21:00+25e6142086 0.0 1016517